Location: Unspecified
(58.9933°N, 5.6375°E)
Time: 20:35:08
(UTC+02:00)

CZ-3 Stage 3 - Visible Passes

Search period start: 27 July 2017 00:00
Search period end: 06 August 2017 00:00
Orbit: 427 x 34772 km, 31.0° (Epoch: 26 July)

Date Brightness Start Highest point End Pass type
(mag) Time Alt. Az. Time Alt. Az. Time Alt. Az.
27 Jul 10.5 20:48:39 10° W 21:38:49 20° WSW 23:38:08 10° WSW visible
28 Jul 8.4 16:57:33 10° WSW 17:39:57 41° SSW 23:05:07 10° SW visible
30 Jul 10.5 20:40:06 10° W 21:28:33 19° WSW 23:21:07 10° WSW visible
31 Jul 8.3 16:48:24 10° WSW 17:29:56 40° SSW 22:48:45 10° SW visible
02 Aug 10.6 20:31:40 10° W 21:18:20 18° WSW 23:03:56 10° WSW visible
03 Aug 8.3 16:39:16 10° WSW 17:19:58 39° SSW 22:32:15 10° SW visible
05 Aug 10.7 20:23:21 10° W 21:08:11 17° WSW 22:46:35 10° WSW visible
05 Aug 10.7 20:23:21 10° W 21:08:10 17° WSW 22:46:35 10° WSW visible
05 Aug 10.7 20:23:21 10° W 21:08:11 17° WSW 22:46:36 10° WSW visible
05 Aug 10.7 20:23:21 10° W 21:08:10 17° WSW 22:46:36 10° WSW visible
05 Aug 10.7 20:23:22 10° W 21:08:10 17° WSW 22:46:36 10° WSW visible
